EW7833 Weather Reports


Display with metric or nautical units.
time (UTC)temp
F
wind
direction
speed
MPH
gust
MPH
rain 1hr
in
rain 24hr
in
rain mn
in
humidity
%
barometer
mb
20260902201535 76 255 4.0 7.0 0.00 0.01 0.01 71 1011.1
20260902200034 76 248 2.0 7.0 0.00 0.01 0.01 70 1011.3
20260902194542 76 252 4.0 7.0 0.00 0.01 0.01 70 1011.5
20260902193031 76 259 3.0 7.0 0.00 0.01 0.01 71 1011.5
20260902191528 75 255 2.0 7.0 0.00 0.01 0.01 72 1012.0
20260902190042 75 253 3.0 9.0 0.00 0.01 0.01 77 1012.0
20260902184524 74 236 3.0 6.0 0.00 0.01 0.01 79 1011.9
20260902183022 74 248 2.0 5.0 0.00 0.01 0.01 79 1011.8
20260902181521 74 245 3.0 8.0 0.00 0.01 0.01 79 1011.9
20260902180028 73 249 3.0 7.0 0.00 0.01 0.01 83 1012.2
20260902174519 73 260 2.0 6.0 0.00 0.01 0.01 84 1012.0
20260902173017 72 255 1.0 4.0 0.00 0.01 0.01 85 1011.7
20260902171518 72 245 0.0 2.0 0.00 0.01 0.01 85 1011.2
20260902170017 71 256 0.0 5.0 0.00 0.01 0.01 84 1011.7
20260902164516 71 253 0.0 6.0 0.00 0.01 0.01 84 1011.7
20260902163015 71 264 2.0 9.0 0.00 0.01 0.01 87 1011.7
20260902161527 70 238 1.0 5.0 0.00 0.01 0.01 88 1011.5
20260902160015 70 247 1.0 3.0 0.00 0.01 0.01 89 1011.5
20260902154513 69 252 0.0 4.0 0.00 0.01 0.01 89 1011.9
20260902153014 69 250 1.0 3.0 0.00 0.01 0.01 90 1011.7
20260902151515 69 249 1.0 4.0 0.00 0.01 0.01 89 1012.1
20260902150012 69 260 2.0 7.0 0.00 0.01 0.01 91 1012.6
20260902144512 70 252 0.0 3.0 0.00 0.01 0.01 91 1011.5
20260902143011 69 231 0.0 1.0 0.00 0.01 0.01 92 1011.0
20260902141510 67 252 0.0 0.0 0.01 0.01 0.01 92 1010.6
20260902140010 67 116 0.0 1.0 0.01 0.01 0.01 92 1009.4
20260902134510 67 96 0.0 1.0 0.01 0.01 0.01 92 1010.0
20260902133007 69 209 0.0 3.0 0.01 0.01 0.01 91 1012.2
20260902131507 70 251 0.0 8.0 0.00 0.00 0.00 90 1012.7
20260902130006 71 226 3.0 11.0 0.00 0.00 0.00 92 1013.8
20260902124503 71 252 4.0 11.0 0.00 0.00 0.00 90 1013.5
20260902123102 71 259 1.0 6.0 0.00 0.00 0.00 88 1013.1
20260902121557 71 255 2.0 7.0 0.00 0.00 0.00 88 1012.7
20260902120057 71 259 0.0 2.0 0.00 0.00 0.00 88 1011.6
20260902114552 71 248 0.0 3.0 0.00 0.00 0.00 87 1011.5
20260902113049 71 252 0.0 1.0 0.00 0.00 0.00 86 1010.9
20260902111551 69 234 0.0 0.0 0.00 0.00 0.00 90 1010.6
20260902110047 70 234 0.0 0.0 0.00 0.00 0.00 90 1010.6
20260902104547 71 232 0.0 1.0 0.00 0.00 0.00 89 1010.6
20260902103047 71 250 0.0 1.0 0.00 0.00 0.00 89 1010.6
20260902101546 71 250 0.0 2.0 0.00 0.00 0.00 89 1011.0
20260902100045 72 248 0.0 2.0 0.00 0.00 0.00 88 1011.0
20260902094546 71 252 0.0 2.0 0.00 0.00 0.00 89 1010.9
20260902093042 72 258 0.0 1.0 0.00 0.00 0.00 90 1010.7
20260902091542 72 241 0.0 1.0 0.00 0.00 0.00 90 1010.6
20260902090039 72 250 1.0 2.0 0.00 0.00 0.00 90 1010.5
20260902084541 72 240 0.0 2.0 0.00 0.00 0.00 90 1010.3
20260902083039 73 247 1.0 4.0 0.00 0.00 0.00 90 1010.4
20260902081536 73 245 1.0 5.0 0.00 0.00 0.00 91 1010.3
20260902080036 73 253 1.0 5.0 0.00 0.00 0.00 91 1010.2
20260902074530 73 255 1.0 6.0 0.00 0.00 0.00 91 1010.3
20260902073024 73 255 2.0 6.0 0.00 0.00 0.00 89 1010.3
20260902071525 73 243 0.0 2.0 0.00 0.00 0.00 88 1010.3
20260902070023 72 255 0.0 2.0 0.00 0.00 0.00 87 1010.2
20260902064525 72 254 0.0 2.0 0.00 0.00 0.00 82 1010.2
20260902063036 72 248 0.0 0.0 0.00 0.00 0.00 80 1010.0
20260902061520 67 252 0.0 0.0 0.00 0.00 0.00 90 1010.1
20260902060017 68 252 0.0 0.0 0.00 0.00 0.00 91 1010.0
20260902054519 68 252 0.0 0.0 0.00 0.00 0.00 91 1009.9
20260902053015 68 252 0.0 0.0 0.00 0.00 0.00 91 1009.9
20260902051516 69 252 0.0 0.0 0.00 0.00 0.00 92 1009.8
20260902050010 69 252 0.0 0.0 0.00 0.00 0.00 92 1009.9
20260902044513 70 252 0.0 0.0 0.00 0.00 0.00 92 1009.9
20260902043004 71 252 0.0 0.0 0.00 0.00 0.00 91 1010.0
20260902041501 72 252 0.0 0.0 0.00 0.00 0.00 91 1010.1
20260902040058 73 252 0.0 0.0 0.00 0.00 0.00 91 1010.2
20260902034606 73 257 0.0 0.0 0.00 0.00 0.00 91 1010.2
20260902033056 74 258 0.0 0.0 0.00 0.00 0.00 91 1010.3
20260902031559 74 250 0.0 1.0 0.00 0.00 0.00 91 1010.4
20260902030054 74 256 0.0 1.0 0.00 0.00 0.00 91 1010.5
20260902024556 73 256 0.0 1.0 0.00 0.00 0.00 89 1010.5
20260902023059 71 250 0.0 0.0 0.00 0.00 0.00 92 1010.3
20260902021555 71 250 0.0 0.0 0.00 0.00 0.00 92 1010.3
20260902020053 72 250 0.0 0.0 0.00 0.00 0.00 91 1010.4
20260902014556 72 250 0.0 0.0 0.00 0.00 0.00 91 1010.4
20260902013056 73 250 0.0 0.0 0.00 0.00 0.00 90 1010.3
20260902011553 73 250 0.0 0.0 0.00 0.00 0.00 90 1010.3
20260902010053 74 250 0.0 0.0 0.00 0.00 0.00 89 1010.1
20260902004557 74 250 0.0 0.0 0.00 0.00 0.00 88 1010.1
20260902003126 75 250 0.0 0.0 0.00 0.00 0.00 86 1009.9
20260902001550 77 250 0.0 0.0 0.00 0.00 0.00 83 1009.9
20260902000049 78 250 0.0 1.0 0.00 0.00 0.00 83 1009.9
20260901234548 79 245 0.0 2.0 0.00 0.00 0.00 81 1009.9
20260901233047 80 243 1.0 3.0 0.00 0.00 0.00 79 1010.0
20260901231558 81 243 0.0 1.0 0.00 0.00 0.00 82 1010.0
20260901230045 82 234 0.0 1.0 0.00 0.00 0.00 77 1010.0
20260901224549 82 240 0.0 1.0 0.00 0.00 0.00 79 1010.0
20260901223042 82 248 0.0 2.0 0.00 0.00 0.00 79 1010.2
20260901221543 83 243 0.0 1.0 0.00 0.00 0.00 77 1010.3
20260901220044 83 246 0.0 2.0 0.00 0.00 0.00 77 1010.3
20260901214542 83 252 0.0 2.0 0.00 0.00 0.00 75 1010.3
20260901213038 83 246 1.0 3.0 0.00 0.00 0.00 78 1010.3
20260901211536 83 243 1.0 2.0 0.00 0.00 0.00 78 1010.4
20260901210035 82 240 1.0 3.0 0.00 0.00 0.00 80 1010.5
20260901204534 82 245 1.0 3.0 0.00 0.00 0.00 82 1010.6
20260901203038 82 240 2.0 3.0 0.00 0.00 0.00 83 1010.6